Location: Unspecified
(0.0000°N, 0.0000°E)
Time: 03:46:05
(UTC+02:00)

Cosmos 1953 Rocket - Visible Passes

Search period start: 28 June 2017 00:00
Search period end: 08 July 2017 00:00
Orbit: 603 x 636 km, 82.5° (Epoch: 26 June)

Date Brightness Start Highest point End Pass type
(mag) Time Alt. Az. Time Alt. Az. Time Alt. Az.
28 Jun 6.7 07:26:22 10° NE 07:28:55 15° E 07:31:30 10° ESE visible
28 Jun 6.7 21:13:23 10° WSW 21:15:28 13° W 21:17:31 10° WNW visible
01 Jul 6.0 20:26:50 10° SW 20:30:31 27° W 20:34:11 10° NNW visible
02 Jul 6.6 06:58:40 10° NE 07:01:33 17° E 07:04:26 10° SE visible
02 Jul 6.9 20:46:31 10° WSW 20:48:04 12° W 20:49:36 10° WNW visible
03 Jul 5.2 07:15:00 10° NNE 07:19:05 38° E 07:23:14 10° SSE visible
04 Jul 3.6 07:32:13 10° N 07:36:38 89° W 07:41:06 10° S visible
06 Jul 6.3 06:31:02 10° NE 06:34:10 19° E 06:37:19 10° SE visible
07 Jul 4.9 06:47:31 10° NNE 06:51:42 42° E 06:55:57 10° SSE visible
